RYR35YA EGSS-LEAL

Flight info

Callsign RYR35YA
Flight time 2h 20m
Altitude 37000
Route NUGBO M183 SILVA Q41 COWLY UT71 VAPID UN859 SOPIL DCT BALAN DCT LMG DCT PIMQO DCT AGN DCT ANETO DCT POSSY DCT XIMPE DCT RIMES N860 VLC
Aircraft B738/M-SADFGIJ1LRWYZ/SB1

Departure

Time 2026-05-04 12:41
Airport London Stansted Airport (EGSS)

Arrival

Time 2026-05-04 15:01
Airport Alicante-Elche Miguel Hernández Airport (LEAL)
Time Latitude Longitude Altitude Speed Heading
2026-05-04 11:58 51.89345 0.26039 351 ft 0 kts 223°
2026-05-04 12:26 51.89360 0.26061 355 ft 3 kts 223°
2026-05-04 12:27 51.89374 0.26083 355 ft 3 kts 223°
2026-05-04 12:27 51.89384 0.26105 358 ft 3 kts 288°
2026-05-04 12:27 51.89373 0.26132 354 ft 3 kts 313°
2026-05-04 12:27 51.89365 0.26147 361 ft 0 kts 313°
2026-05-04 12:30 51.89366 0.26144 361 ft 1 kts 313°
2026-05-04 12:31 51.89385 0.26111 359 ft 7 kts 312°
2026-05-04 12:31 51.89432 0.26028 351 ft 13 kts 313°
2026-05-04 12:31 51.89496 0.25918 351 ft 13 kts 313°
2026-05-04 12:31 51.89517 0.25793 358 ft 13 kts 232°
2026-05-04 12:32 51.89441 0.25676 353 ft 17 kts 222°
2026-05-04 12:32 51.89215 0.25338 351 ft 26 kts 222°
2026-05-04 12:32 51.89085 0.25142 356 ft 25 kts 224°
2026-05-04 12:33 51.88963 0.24959 354 ft 23 kts 223°
2026-05-04 12:33 51.88849 0.24788 354 ft 22 kts 223°
2026-05-04 12:33 51.88736 0.24618 356 ft 22 kts 223°
2026-05-04 12:33 51.88622 0.24447 346 ft 22 kts 222°
2026-05-04 12:34 51.88511 0.24280 349 ft 22 kts 223°
2026-05-04 12:34 51.88403 0.24117 346 ft 21 kts 223°
2026-05-04 12:34 51.88298 0.23959 345 ft 20 kts 222°
2026-05-04 12:34 51.88196 0.23806 342 ft 21 kts 223°
2026-05-04 12:35 51.88089 0.23648 338 ft 21 kts 223°
2026-05-04 12:35 51.87986 0.23493 340 ft 20 kts 223°
2026-05-04 12:35 51.87888 0.23348 340 ft 18 kts 225°
2026-05-04 12:35 51.87912 0.23182 336 ft 17 kts 306°
2026-05-04 12:36 51.87871 0.23023 337 ft 17 kts 223°
2026-05-04 12:36 51.87787 0.22899 337 ft 16 kts 221°
2026-05-04 12:36 51.87699 0.22767 336 ft 18 kts 223°
2026-05-04 12:36 51.87607 0.22629 335 ft 18 kts 222°
2026-05-04 12:37 51.87518 0.22495 330 ft 12 kts 233°
2026-05-04 12:37 51.87544 0.22382 325 ft 10 kts 313°
2026-05-04 12:37 51.87564 0.22347 324 ft 0 kts 313°
2026-05-04 12:39 51.87565 0.22347 324 ft 0 kts 313°
2026-05-04 12:39 51.87578 0.22325 323 ft 6 kts 316°
2026-05-04 12:39 51.87631 0.22264 323 ft 12 kts 334°
2026-05-04 12:40 51.87728 0.22319 327 ft 25 kts 43°
2026-05-04 12:40 51.88025 0.22764 328 ft 92 kts 43°
2026-05-04 12:40 51.88648 0.23700 340 ft 150 kts 43°
2026-05-04 12:40 51.89490 0.24941 757 ft 166 kts 40°
2026-05-04 12:41 51.90344 0.26201 1582 ft 167 kts 41°
2026-05-04 12:41 51.91208 0.27508 2211 ft 176 kts 42°
2026-05-04 12:41 51.92127 0.28892 2749 ft 185 kts 39°
2026-05-04 12:41 51.93292 0.29873 3258 ft 196 kts 13°
2026-05-04 12:42 51.94674 0.29892 3738 ft 205 kts 346°
2026-05-04 12:42 51.95997 0.28826 3988 ft 222 kts 318°
2026-05-04 12:42 51.97135 0.27115 4247 ft 228 kts 321°
2026-05-04 12:42 51.98421 0.25477 4529 ft 235 kts 321°
2026-05-04 12:43 51.99709 0.23816 4793 ft 238 kts 321°
2026-05-04 12:43 52.00982 0.22163 4996 ft 238 kts 321°
2026-05-04 12:43 52.02280 0.20474 4987 ft 239 kts 321°
2026-05-04 12:43 52.03573 0.18794 4988 ft 236 kts 321°
2026-05-04 12:44 52.04848 0.17135 4999 ft 235 kts 321°
2026-05-04 12:44 52.05934 0.15146 5009 ft 243 kts 291°
2026-05-04 12:44 52.06058 0.12355 5273 ft 261 kts 255°
2026-05-04 12:44 52.05488 0.09501 5871 ft 270 kts 250°
2026-05-04 12:45 52.04875 0.06600 6617 ft 272 kts 250°
2026-05-04 12:45 52.04272 0.03682 7380 ft 273 kts 251°
2026-05-04 12:45 52.03684 0.00746 8165 ft 273 kts 252°
2026-05-04 12:45 52.03110 -0.02200 8915 ft 275 kts 252°
2026-05-04 12:46 52.02543 -0.05175 9672 ft 277 kts 252°
2026-05-04 12:46 52.01978 -0.08185 10313 ft 282 kts 252°
2026-05-04 12:46 52.01388 -0.11354 10493 ft 304 kts 252°
2026-05-04 12:46 52.00757 -0.14764 10668 ft 325 kts 252°
2026-05-04 12:47 52.00101 -0.18324 10938 ft 340 kts 252°
2026-05-04 12:47 51.99417 -0.22044 11475 ft 346 kts 252°
2026-05-04 12:47 51.98726 -0.25812 12153 ft 349 kts 252°
2026-05-04 12:47 51.98031 -0.29599 12850 ft 352 kts 252°
2026-05-04 12:48 51.97328 -0.33419 13530 ft 355 kts 252°
2026-05-04 12:48 51.96617 -0.37283 14183 ft 359 kts 252°
2026-05-04 12:48 51.95691 -0.41048 14803 ft 362 kts 240°
2026-05-04 12:48 51.94249 -0.44404 15457 ft 364 kts 229°
2026-05-04 12:49 51.92599 -0.47527 16110 ft 367 kts 229°
2026-05-04 12:49 51.90926 -0.50684 16734 ft 371 kts 229°
2026-05-04 12:49 51.89247 -0.53868 17353 ft 374 kts 229°
2026-05-04 12:49 51.87552 -0.57095 17978 ft 378 kts 229°
2026-05-04 12:50 51.85840 -0.60366 18562 ft 381 kts 229°
2026-05-04 12:50 51.84123 -0.63652 19102 ft 384 kts 229°
2026-05-04 12:50 51.82385 -0.66965 19662 ft 386 kts 227°
2026-05-04 12:50 51.80351 -0.69696 20146 ft 388 kts 208°
2026-05-04 12:51 51.77762 -0.71099 20695 ft 391 kts 189°
2026-05-04 12:51 51.75080 -0.71371 21232 ft 393 kts 182°
2026-05-04 12:51 51.72331 -0.71467 21700 ft 397 kts 182°
2026-05-04 12:51 51.69555 -0.71556 22172 ft 401 kts 182°
2026-05-04 12:52 51.66752 -0.71656 22669 ft 404 kts 182°
2026-05-04 12:52 51.63935 -0.71771 23156 ft 407 kts 182°
2026-05-04 12:52 51.61096 -0.71898 23625 ft 410 kts 182°
2026-05-04 12:52 51.58230 -0.72036 24035 ft 412 kts 182°
2026-05-04 12:53 51.55353 -0.71978 24474 ft 414 kts 175°
2026-05-04 12:53 51.52536 -0.71068 24932 ft 416 kts 165°
2026-05-04 12:53 51.49779 -0.69637 25365 ft 417 kts 163°
2026-05-04 12:53 51.47015 -0.68175 25752 ft 419 kts 163°
2026-05-04 12:54 51.44238 -0.66710 26132 ft 421 kts 164°
2026-05-04 12:54 51.41447 -0.65251 26519 ft 422 kts 164°
2026-05-04 12:54 51.38644 -0.63800 26906 ft 424 kts 164°
2026-05-04 12:54 51.35836 -0.62356 27285 ft 425 kts 165°
2026-05-04 12:55 51.33015 -0.60915 27648 ft 426 kts 165°
2026-05-04 12:55 51.30186 -0.59474 28029 ft 427 kts 165°
2026-05-04 12:55 51.27352 -0.58034 28393 ft 428 kts 165°
2026-05-04 12:55 51.24505 -0.56591 28721 ft 430 kts 165°
2026-05-04 12:56 51.21653 -0.55147 29032 ft 431 kts 165°
2026-05-04 12:56 51.18784 -0.53696 29343 ft 433 kts 165°
2026-05-04 12:56 51.15909 -0.52243 29691 ft 433 kts 165°
2026-05-04 12:56 51.13037 -0.50793 30154 ft 431 kts 165°
2026-05-04 12:57 51.10221 -0.49372 30570 ft 428 kts 165°
2026-05-04 12:57 51.07373 -0.47937 30870 ft 428 kts 165°
2026-05-04 12:57 51.04529 -0.46508 31115 ft 430 kts 165°
2026-05-04 12:57 51.01674 -0.45075 31397 ft 430 kts 165°
2026-05-04 12:58 50.98822 -0.43644 31736 ft 428 kts 165°
2026-05-04 12:58 50.95982 -0.42222 32052 ft 428 kts 165°
2026-05-04 12:58 50.93138 -0.40799 32327 ft 428 kts 165°
2026-05-04 12:58 50.90328 -0.39396 32604 ft 428 kts 164°
2026-05-04 12:59 50.87485 -0.37978 32904 ft 428 kts 164°
2026-05-04 12:59 50.84644 -0.36562 33278 ft 426 kts 164°
2026-05-04 12:59 50.81826 -0.35159 33643 ft 424 kts 164°
2026-05-04 12:59 50.79017 -0.33763 33906 ft 424 kts 164°
2026-05-04 13:00 50.76195 -0.32362 34115 ft 425 kts 164°
2026-05-04 13:00 50.73378 -0.30966 34312 ft 425 kts 164°
2026-05-04 13:00 50.70551 -0.29567 34494 ft 426 kts 164°
2026-05-04 13:00 50.67715 -0.28165 34697 ft 427 kts 164°
2026-05-04 13:01 50.64879 -0.26764 34890 ft 428 kts 164°
2026-05-04 13:01 50.62035 -0.25361 35099 ft 427 kts 164°
2026-05-04 13:01 50.59195 -0.23962 35308 ft 427 kts 164°
2026-05-04 13:01 50.56355 -0.22565 35454 ft 429 kts 164°
2026-05-04 13:02 50.53498 -0.21161 35601 ft 430 kts 164°
2026-05-04 13:02 50.50641 -0.19759 35781 ft 431 kts 164°
2026-05-04 13:02 50.47816 -0.18374 35957 ft 431 kts 164°
2026-05-04 13:02 50.44947 -0.16970 36111 ft 432 kts 164°
2026-05-04 13:03 50.42075 -0.15566 36258 ft 433 kts 164°
2026-05-04 13:03 50.39190 -0.14157 36445 ft 433 kts 164°
2026-05-04 13:03 50.36316 -0.12755 36632 ft 433 kts 164°
2026-05-04 13:03 50.33431 -0.11350 36768 ft 434 kts 164°
2026-05-04 13:04 50.30545 -0.09946 36901 ft 435 kts 164°
2026-05-04 13:04 50.27649 -0.08539 37003 ft 437 kts 164°
2026-05-04 13:04 50.24738 -0.07127 37009 ft 439 kts 164°
2026-05-04 13:05 50.18915 -0.04306 37010 ft 436 kts 164°
2026-05-04 13:05 50.13169 -0.01528 37013 ft 433 kts 164°
2026-05-04 13:06 50.07402 0.01165 36997 ft 430 kts 166°
2026-05-04 13:06 50.01611 0.03416 37009 ft 428 kts 168°
2026-05-04 13:07 49.95857 0.05597 37006 ft 428 kts 167°
2026-05-04 13:07 49.90060 0.07847 37009 ft 430 kts 167°
2026-05-04 13:08 49.85227 0.09739 37008 ft 431 kts 167°
2026-05-04 13:08 49.79388 0.12024 37006 ft 433 kts 167°
2026-05-04 13:09 49.73524 0.14313 36998 ft 435 kts 167°
2026-05-04 13:09 49.67627 0.16608 36999 ft 437 kts 167°
2026-05-04 13:10 49.61726 0.18974 36994 ft 438 kts 167°
2026-05-04 13:10 49.55848 0.21355 36992 ft 439 kts 167°
2026-05-04 13:11 49.49928 0.23739 36989 ft 439 kts 167°
2026-05-04 13:11 49.44027 0.26103 36991 ft 438 kts 167°
2026-05-04 13:12 49.38136 0.28457 36998 ft 437 kts 167°
2026-05-04 13:12 49.32252 0.30803 36987 ft 436 kts 167°
2026-05-04 13:13 49.26395 0.33203 36992 ft 435 kts 166°
2026-05-04 13:13 49.20611 0.35662 36967 ft 433 kts 166°
2026-05-04 13:14 49.14803 0.38121 36966 ft 432 kts 166°
2026-05-04 13:14 49.09009 0.40556 36964 ft 431 kts 166°
2026-05-04 13:15 49.03217 0.42980 36964 ft 431 kts 167°
2026-05-04 13:15 48.97437 0.45392 36955 ft 430 kts 167°
2026-05-04 13:16 48.91695 0.47784 36962 ft 430 kts 167°
2026-05-04 13:16 48.85911 0.50188 36963 ft 430 kts 167°
2026-05-04 13:17 48.80128 0.52585 36963 ft 431 kts 167°
2026-05-04 13:17 48.74325 0.54918 36964 ft 431 kts 167°
2026-05-04 13:18 48.68498 0.57181 36962 ft 432 kts 167°
2026-05-04 13:18 48.62696 0.59441 36964 ft 433 kts 167°
2026-05-04 13:19 48.56850 0.61724 36961 ft 433 kts 167°
2026-05-04 13:19 48.51016 0.64002 36958 ft 433 kts 167°
2026-05-04 13:20 48.45192 0.66367 36959 ft 433 kts 167°
2026-05-04 13:20 48.39410 0.68733 36961 ft 433 kts 167°
2026-05-04 13:21 48.33602 0.71092 36952 ft 432 kts 167°
2026-05-04 13:21 48.27783 0.73442 36956 ft 432 kts 168°
2026-05-04 13:22 48.21864 0.74456 36945 ft 427 kts 183°
2026-05-04 13:22 48.15930 0.74171 36944 ft 426 kts 183°
2026-05-04 13:23 48.10038 0.73903 36949 ft 426 kts 183°
2026-05-04 13:23 48.04121 0.73665 36948 ft 425 kts 182°
2026-05-04 13:24 47.98211 0.73445 36943 ft 424 kts 182°
2026-05-04 13:24 47.92304 0.73230 36959 ft 425 kts 182°
2026-05-04 13:25 47.83418 0.72907 36943 ft 426 kts 182°
2026-05-04 13:25 47.77486 0.72691 36935 ft 427 kts 183°
2026-05-04 13:26 47.71547 0.72476 36931 ft 427 kts 183°
2026-05-04 13:26 47.65586 0.72260 36944 ft 430 kts 183°
2026-05-04 13:27 47.59605 0.72044 36939 ft 434 kts 183°
2026-05-04 13:27 47.53603 0.71829 36912 ft 425 kts 183°
2026-05-04 13:28 47.47742 0.71620 36926 ft 420 kts 183°
2026-05-04 13:28 47.41906 0.71410 36940 ft 418 kts 183°
2026-05-04 13:29 47.36098 0.71201 36936 ft 418 kts 183°
2026-05-04 13:29 47.30274 0.70993 36949 ft 420 kts 183°
2026-05-04 13:30 47.24408 0.70783 36930 ft 423 kts 183°
2026-05-04 13:30 47.18517 0.70574 36926 ft 425 kts 183°
2026-05-04 13:31 47.12636 0.70366 36932 ft 426 kts 183°
2026-05-04 13:31 47.06708 0.70156 36931 ft 427 kts 183°
2026-05-04 13:32 47.00758 0.69946 36921 ft 428 kts 183°
2026-05-04 13:32 46.94806 0.69737 36923 ft 427 kts 183°
2026-05-04 13:33 46.88865 0.69528 36922 ft 426 kts 183°
2026-05-04 13:33 46.82943 0.69321 36924 ft 425 kts 183°
2026-05-04 13:34 46.77046 0.69115 36927 ft 423 kts 183°
2026-05-04 13:34 46.71165 0.68909 36929 ft 422 kts 183°
2026-05-04 13:35 46.62402 0.68604 36931 ft 420 kts 183°
2026-05-04 13:36 46.56558 0.68401 36921 ft 419 kts 183°
2026-05-04 13:36 46.50747 0.68200 36930 ft 419 kts 183°
2026-05-04 13:37 46.44908 0.67998 36928 ft 419 kts 183°
2026-05-04 13:37 46.39075 0.67796 36918 ft 419 kts 183°
2026-05-04 13:38 46.33237 0.67595 36925 ft 419 kts 183°
2026-05-04 13:38 46.27391 0.67394 36930 ft 421 kts 183°
2026-05-04 13:39 46.21545 0.67193 36927 ft 423 kts 183°
2026-05-04 13:39 46.15641 0.66991 36906 ft 423 kts 183°
2026-05-04 13:40 46.09790 0.66792 36912 ft 422 kts 183°
2026-05-04 13:40 46.03914 0.66593 36916 ft 421 kts 183°
2026-05-04 13:41 45.98057 0.66394 36918 ft 420 kts 183°
2026-05-04 13:41 45.92213 0.66195 36926 ft 420 kts 184°
2026-05-04 13:42 45.83463 0.65899 36916 ft 419 kts 184°
2026-05-04 13:42 45.77640 0.65703 36923 ft 418 kts 184°
2026-05-04 13:43 45.71823 0.65507 36922 ft 418 kts 184°
2026-05-04 13:43 45.66009 0.65311 36924 ft 418 kts 184°
2026-05-04 13:44 45.60238 0.65118 36917 ft 418 kts 184°
2026-05-04 13:44 45.54416 0.64923 36929 ft 418 kts 184°
2026-05-04 13:45 45.48592 0.64728 36904 ft 419 kts 184°
2026-05-04 13:45 45.42758 0.64534 36911 ft 419 kts 184°
2026-05-04 13:46 45.36923 0.64340 36903 ft 419 kts 184°
2026-05-04 13:46 45.31087 0.64146 36909 ft 419 kts 184°
2026-05-04 13:47 45.25249 0.63953 36908 ft 419 kts 184°
2026-05-04 13:47 45.19458 0.63762 36909 ft 419 kts 184°
2026-05-04 13:48 45.13635 0.63570 36912 ft 418 kts 184°
2026-05-04 13:48 45.07820 0.63378 36906 ft 418 kts 184°
2026-05-04 13:49 45.02008 0.63187 36904 ft 417 kts 184°
2026-05-04 13:49 44.96207 0.62997 36905 ft 416 kts 184°
2026-05-04 13:50 44.90417 0.62808 36915 ft 416 kts 184°
2026-05-04 13:50 44.84624 0.62618 36920 ft 417 kts 184°
2026-05-04 13:51 44.78815 0.62429 36903 ft 417 kts 184°
2026-05-04 13:51 44.73018 0.62241 36913 ft 416 kts 184°
2026-05-04 13:52 44.64368 0.61960 36913 ft 415 kts 184°
2026-05-04 13:53 44.58595 0.61774 36911 ft 414 kts 184°
2026-05-04 13:53 44.52824 0.61587 36918 ft 414 kts 184°
2026-05-04 13:54 44.45152 0.61340 36921 ft 414 kts 184°
2026-05-04 13:55 44.36519 0.61062 36921 ft 413 kts 184°
2026-05-04 13:55 44.27898 0.60786 36937 ft 413 kts 184°
2026-05-04 13:56 44.22150 0.60602 36931 ft 413 kts 184°
2026-05-04 13:57 44.13507 0.60326 36939 ft 414 kts 185°
2026-05-04 13:58 44.02027 0.59962 36929 ft 414 kts 185°
2026-05-04 13:58 43.93388 0.59688 36935 ft 414 kts 185°
2026-05-04 13:59 43.87630 0.59506 36938 ft 414 kts 185°
2026-05-04 14:00 43.78980 0.59234 36928 ft 414 kts 185°
2026-05-04 14:00 43.70387 0.58964 36938 ft 413 kts 185°
2026-05-04 14:01 43.64602 0.58783 36934 ft 413 kts 185°
2026-05-04 14:02 43.56024 0.58515 36938 ft 412 kts 185°
2026-05-04 14:02 43.50285 0.58336 36936 ft 412 kts 185°
2026-05-04 14:03 43.44552 0.58157 36943 ft 412 kts 185°
2026-05-04 14:03 43.38817 0.57979 36940 ft 411 kts 185°
2026-05-04 14:04 43.30232 0.57713 36939 ft 411 kts 185°
2026-05-04 14:04 43.24514 0.57536 36938 ft 411 kts 185°
2026-05-04 14:05 43.15977 0.57273 36939 ft 410 kts 185°
2026-05-04 14:06 43.10272 0.57097 36933 ft 410 kts 185°
2026-05-04 14:06 43.04573 0.56922 36937 ft 409 kts 185°
2026-05-04 14:07 42.98883 0.56748 36919 ft 408 kts 186°
2026-05-04 14:07 42.93203 0.56574 36931 ft 407 kts 186°
2026-05-04 14:08 42.87532 0.56401 36931 ft 408 kts 186°
2026-05-04 14:08 42.81854 0.56226 36930 ft 409 kts 186°
2026-05-04 14:09 42.73350 0.55967 36939 ft 409 kts 186°
2026-05-04 14:09 42.70555 0.55536 36892 ft 398 kts 195°
2026-05-04 14:10 42.65276 0.53346 36945 ft 401 kts 206°
2026-05-04 14:10 42.60189 0.50080 36906 ft 406 kts 207°
2026-05-04 14:11 42.55067 0.46754 36945 ft 408 kts 207°
2026-05-04 14:11 42.47436 0.41862 36919 ft 401 kts 207°
2026-05-04 14:12 42.42410 0.38660 36925 ft 399 kts 207°
2026-05-04 14:13 42.34865 0.33865 36939 ft 398 kts 207°
2026-05-04 14:13 42.29832 0.30673 36925 ft 400 kts 207°
2026-05-04 14:14 42.24771 0.27470 36920 ft 402 kts 207°
2026-05-04 14:14 42.17144 0.22652 36911 ft 404 kts 207°
2026-05-04 14:15 42.06889 0.16389 36902 ft 406 kts 201°
2026-05-04 14:16 41.98470 0.14507 36885 ft 410 kts 191°
2026-05-04 14:17 41.90009 0.13293 36905 ft 408 kts 191°
2026-05-04 14:18 41.81557 0.12039 36906 ft 406 kts 191°
2026-05-04 14:19 41.70354 0.10369 36905 ft 404 kts 192°
2026-05-04 14:19 41.64763 0.09537 36908 ft 404 kts 192°
2026-05-04 14:20 41.59201 0.08710 36899 ft 405 kts 192°
2026-05-04 14:20 41.53594 0.07879 36891 ft 405 kts 192°
2026-05-04 14:21 41.45153 0.06631 36899 ft 407 kts 192°
2026-05-04 14:21 41.39507 0.05798 36894 ft 408 kts 192°
2026-05-04 14:22 41.33853 0.04966 36874 ft 409 kts 192°
2026-05-04 14:22 41.28220 0.04138 36889 ft 409 kts 192°
2026-05-04 14:23 41.19724 0.02892 36883 ft 409 kts 192°
2026-05-04 14:24 41.14062 0.02064 36885 ft 408 kts 192°
2026-05-04 14:24 41.08415 0.01238 36889 ft 408 kts 192°
2026-05-04 14:25 41.02777 0.00415 36890 ft 407 kts 192°
2026-05-04 14:25 40.94366 -0.00810 36898 ft 406 kts 192°
2026-05-04 14:26 40.88753 -0.01627 36879 ft 406 kts 192°
2026-05-04 14:26 40.83137 -0.02442 36896 ft 406 kts 192°
2026-05-04 14:27 40.77514 -0.03258 36893 ft 406 kts 192°
2026-05-04 14:27 40.71886 -0.04073 36896 ft 407 kts 192°
2026-05-04 14:28 40.66244 -0.04889 36891 ft 408 kts 192°
2026-05-04 14:28 40.60610 -0.05701 36907 ft 409 kts 192°
2026-05-04 14:29 40.49588 -0.08809 36932 ft 404 kts 202°
2026-05-04 14:30 40.44203 -0.10982 36940 ft 405 kts 201°
2026-05-04 14:31 40.36091 -0.14199 36953 ft 406 kts 202°
2026-05-04 14:32 40.25269 -0.18466 36890 ft 406 kts 202°
2026-05-04 14:32 40.22536 -0.19543 36410 ft 409 kts 202°
2026-05-04 14:32 40.19857 -0.20594 35846 ft 406 kts 202°
2026-05-04 14:32 40.17155 -0.21653 35265 ft 405 kts 201°
2026-05-04 14:33 40.14471 -0.22705 34842 ft 400 kts 201°
2026-05-04 14:33 40.11815 -0.23746 34390 ft 396 kts 201°
2026-05-04 14:33 40.09190 -0.24775 33941 ft 392 kts 201°
2026-05-04 14:33 40.06589 -0.25793 33440 ft 388 kts 201°
2026-05-04 14:34 40.04011 -0.26804 32954 ft 384 kts 201°
2026-05-04 14:34 40.01465 -0.27799 32501 ft 380 kts 202°
2026-05-04 14:34 39.98947 -0.28781 32090 ft 375 kts 202°
2026-05-04 14:34 39.96458 -0.29752 31679 ft 371 kts 202°
2026-05-04 14:35 39.93993 -0.30713 31259 ft 368 kts 202°
2026-05-04 14:35 39.91542 -0.31667 30835 ft 364 kts 202°
2026-05-04 14:35 39.89129 -0.32605 30424 ft 360 kts 202°
2026-05-04 14:35 39.86778 -0.33519 30016 ft 355 kts 202°
2026-05-04 14:36 39.84385 -0.34448 29545 ft 353 kts 202°
2026-05-04 14:36 39.82080 -0.35343 29105 ft 349 kts 202°
2026-05-04 14:36 39.79764 -0.36242 28667 ft 345 kts 202°
2026-05-04 14:36 39.77470 -0.37131 28274 ft 341 kts 202°
2026-05-04 14:37 39.75203 -0.38010 27859 ft 337 kts 202°
2026-05-04 14:37 39.72960 -0.38879 27459 ft 334 kts 202°
2026-05-04 14:37 39.70774 -0.39727 27060 ft 331 kts 202°
2026-05-04 14:37 39.68576 -0.40577 26673 ft 327 kts 202°
2026-05-04 14:38 39.66401 -0.41419 26294 ft 325 kts 202°
2026-05-04 14:38 39.64237 -0.42257 25905 ft 323 kts 202°
2026-05-04 14:38 39.62085 -0.43089 25522 ft 321 kts 202°
2026-05-04 14:38 39.59946 -0.43916 25144 ft 319 kts 202°
2026-05-04 14:39 39.57823 -0.44736 24749 ft 317 kts 202°
2026-05-04 14:39 39.55712 -0.45550 24381 ft 315 kts 202°
2026-05-04 14:39 39.53613 -0.46360 24011 ft 314 kts 202°
2026-05-04 14:40 39.49441 -0.47966 23217 ft 312 kts 202°
2026-05-04 14:40 39.47365 -0.48750 22801 ft 310 kts 201°
2026-05-04 14:40 39.45290 -0.49497 22398 ft 309 kts 201°
2026-05-04 14:40 39.43919 -0.49984 22138 ft 307 kts 201°
2026-05-04 14:41 39.41866 -0.50710 21766 ft 305 kts 201°
2026-05-04 14:41 39.39163 -0.51667 21275 ft 303 kts 201°
2026-05-04 14:41 39.35095 -0.53112 20539 ft 304 kts 201°
2026-05-04 14:42 39.31632 -0.54349 19919 ft 317 kts 201°
2026-05-04 14:42 39.29492 -0.55112 19544 ft 319 kts 201°
2026-05-04 14:42 39.27361 -0.55868 19154 ft 317 kts 201°
2026-05-04 14:43 39.25239 -0.56620 18769 ft 315 kts 201°
2026-05-04 14:43 39.23128 -0.57367 18398 ft 314 kts 201°
2026-05-04 14:43 39.21030 -0.58110 17985 ft 312 kts 201°
2026-05-04 14:43 39.18936 -0.58851 17582 ft 310 kts 201°
2026-05-04 14:44 39.16859 -0.59587 17198 ft 308 kts 201°
2026-05-04 14:44 39.14801 -0.60316 16820 ft 306 kts 201°
2026-05-04 14:44 39.12757 -0.61039 16458 ft 303 kts 200°
2026-05-04 14:44 39.10728 -0.61757 16088 ft 302 kts 200°
2026-05-04 14:45 39.08706 -0.62472 15746 ft 300 kts 200°
2026-05-04 14:45 39.06695 -0.63182 15382 ft 298 kts 200°
2026-05-04 14:45 39.04699 -0.63887 15044 ft 297 kts 200°
2026-05-04 14:45 39.02712 -0.64590 14701 ft 296 kts 200°
2026-05-04 14:46 39.00736 -0.65287 14356 ft 294 kts 200°
2026-05-04 14:46 38.98761 -0.65984 14031 ft 295 kts 200°
2026-05-04 14:46 38.96805 -0.66674 13666 ft 296 kts 200°
2026-05-04 14:46 38.94821 -0.67373 13265 ft 295 kts 200°
2026-05-04 14:47 38.92849 -0.68067 12912 ft 293 kts 200°
2026-05-04 14:47 38.90887 -0.68757 12557 ft 291 kts 200°
2026-05-04 14:47 38.88938 -0.69442 12188 ft 289 kts 200°
2026-05-04 14:47 38.87001 -0.70123 11859 ft 287 kts 200°
2026-05-04 14:48 38.85074 -0.70800 11520 ft 286 kts 200°
2026-05-04 14:48 38.83157 -0.71473 11187 ft 286 kts 200°
2026-05-04 14:48 38.81240 -0.72144 10844 ft 285 kts 200°
2026-05-04 14:48 38.79327 -0.72815 10506 ft 285 kts 200°
2026-05-04 14:49 38.77447 -0.73475 10232 ft 281 kts 200°
2026-05-04 14:49 38.75593 -0.74121 10107 ft 272 kts 200°
2026-05-04 14:49 38.73791 -0.74750 9974 ft 265 kts 200°
2026-05-04 14:49 38.72020 -0.75371 9673 ft 264 kts 200°
2026-05-04 14:50 38.70254 -0.75990 9371 ft 263 kts 200°
2026-05-04 14:50 38.68493 -0.76607 9064 ft 262 kts 200°
2026-05-04 14:50 38.66742 -0.77220 8759 ft 260 kts 200°
2026-05-04 14:50 38.64995 -0.77830 8483 ft 260 kts 199°
2026-05-04 14:51 38.63255 -0.78438 8220 ft 259 kts 199°
2026-05-04 14:51 38.61526 -0.79041 8050 ft 254 kts 199°
2026-05-04 14:51 38.59841 -0.79628 7928 ft 248 kts 199°
2026-05-04 14:51 38.58200 -0.80199 7803 ft 241 kts 200°
2026-05-04 14:52 38.56610 -0.80752 7703 ft 233 kts 199°
2026-05-04 14:52 38.55068 -0.81287 7610 ft 226 kts 199°
2026-05-04 14:52 38.53555 -0.81798 7437 ft 227 kts 196°
2026-05-04 14:52 38.51999 -0.82174 7206 ft 227 kts 194°
2026-05-04 14:53 38.50430 -0.82514 6982 ft 229 kts 194°
2026-05-04 14:53 38.48863 -0.82851 6735 ft 229 kts 194°
2026-05-04 14:53 38.47290 -0.83193 6494 ft 229 kts 194°
2026-05-04 14:53 38.45718 -0.83538 6260 ft 228 kts 194°
2026-05-04 14:54 38.44159 -0.83883 6025 ft 228 kts 194°
2026-05-04 14:54 38.42600 -0.84230 5821 ft 225 kts 194°
2026-05-04 14:54 38.41073 -0.84570 5573 ft 221 kts 194°
2026-05-04 14:54 38.39573 -0.84905 5336 ft 217 kts 193°
2026-05-04 14:55 38.38101 -0.85233 5120 ft 211 kts 193°
2026-05-04 14:55 38.36673 -0.85552 4871 ft 206 kts 194°
2026-05-04 14:55 38.35284 -0.85862 4634 ft 200 kts 194°
2026-05-04 14:55 38.33929 -0.86109 4456 ft 194 kts 184°
2026-05-04 14:56 38.32684 -0.85476 4409 ft 204 kts 138°
2026-05-04 14:56 38.32073 -0.83824 4210 ft 213 kts 98°
2026-05-04 14:56 38.31916 -0.81939 3908 ft 215 kts 101°
2026-05-04 14:56 38.31646 -0.80118 3636 ft 210 kts 103°
2026-05-04 14:57 38.31374 -0.78301 3388 ft 207 kts 102°
2026-05-04 14:57 38.31117 -0.76504 3104 ft 205 kts 103°
2026-05-04 14:57 38.30865 -0.74730 2843 ft 202 kts 101°
2026-05-04 14:57 38.30620 -0.72984 2579 ft 198 kts 101°
2026-05-04 14:58 38.30380 -0.71272 2314 ft 194 kts 102°
2026-05-04 14:58 38.30144 -0.69592 2058 ft 191 kts 102°
2026-05-04 14:58 38.29912 -0.67943 1812 ft 188 kts 102°
2026-05-04 14:58 38.29685 -0.66323 1566 ft 182 kts 102°
2026-05-04 14:59 38.29470 -0.64780 1339 ft 168 kts 102°
2026-05-04 14:59 38.29273 -0.63376 1111 ft 157 kts 102°
2026-05-04 14:59 38.28896 -0.60678 684 ft 150 kts 104°
2026-05-04 15:00 38.28715 -0.59372 507 ft 151 kts 104°
2026-05-04 15:00 38.28529 -0.58045 294 ft 153 kts 104°
2026-05-04 15:00 38.28345 -0.56711 125 ft 148 kts 103°
2026-05-04 15:01 38.28135 -0.55225 86 ft 40 kts 100°
2026-05-04 15:01 38.28130 -0.54973 73 ft 21 kts 80°
2026-05-04 15:01 38.28164 -0.54826 71 ft 18 kts 71°
2026-05-04 15:01 38.28199 -0.54721 63 ft 10 kts 47°
2026-05-04 15:02 38.28246 -0.54756 69 ft 10 kts 288°
2026-05-04 15:02 38.28259 -0.54840 69 ft 10 kts 280°
2026-05-04 15:02 38.28270 -0.54922 67 ft 9 kts 280°
2026-05-04 15:02 38.28280 -0.55003 78 ft 9 kts 279°
2026-05-04 15:03 38.28291 -0.55081 80 ft 9 kts 280°
2026-05-04 15:03 38.28302 -0.55157 84 ft 9 kts 279°
2026-05-04 15:03 38.28338 -0.55208 87 ft 9 kts
2026-05-04 15:03 38.28395 -0.55157 87 ft 11 kts 40°
2026-05-04 15:04 38.28464 -0.55128 87 ft 9 kts
2026-05-04 15:04 38.28504 -0.55122 88 ft 2 kts
2026-05-04 15:04 38.28504 -0.55121 88 ft 0 kts